Search for airport 
image banner adimage banner ad
image banner ad

EERA - Rapla

Located in Rapla, Estonia

ICAO - EERA, IATA -

Data provided by Airmate  

General information

Coordinates: N58°59'11" E24°43'28"
Elevation is 216 feet MSL.
Magnetic variation is 7° East
Rated:
View ratings: [VIEW]


View others Airports in Rapla County

Operational data

Open for public use
Current time UTC:
Current local time:
Weather at : EEEI - Amari ( 42 km )
TAF: TAF EEEI 251730Z 2518/2618 08012KT 9999 FEW020 BECMG 2521/2523 BKN010 BKN015 TEMPO 2523/2607 1500 +SN BLSN OVC008 TEMPO 2607/2618 2000 SHSN BLSN OVC008 SCT015CB PROB40 TEMPO 2611/2618 06014G25KT
View NOTAMs / SUP AIP / TFR affecting this airport [VIEW]
Communications frequencies: [VIEW]

Runways:

RWY identifierQFULength (ft)Width (ft)SurfaceLDA (ft)
15L155°2625197GRASS
33R335°2625197GRASS
15R155°4921197GRASS
33L335°4921197GRASS

Airport contact information

Address: Rapla Estonia

Satellite view of EERA